TimeCDT,TemperatureF,Dew PointF,Humidity,Sea Level PressureIn,VisibilityMPH,Wind Direction,Wind SpeedMPH,Gust SpeedMPH,PrecipitationIn,Events,Conditions,WindDirDegrees,DateUTC
12:15 AM,74.3,61.7,65,29.96,10.0,South,9.2,-,N/A,,Clear,170,2013-06-20 05:15:00
12:35 AM,73.8,61.9,66,29.96,10.0,SSE,8.1,-,N/A,,Clear,150,2013-06-20 05:35:00
12:55 AM,72.3,63.0,72,29.96,10.0,SSE,8.1,-,N/A,,Clear,160,2013-06-20 05:55:00
1:15 AM,72.0,63.5,75,29.96,10.0,SSE,8.1,-,N/A,,Clear,150,2013-06-20 06:15:00
1:35 AM,71.6,63.7,76,29.96,10.0,SSE,8.1,-,N/A,,Clear,160,2013-06-20 06:35:00
1:55 AM,71.6,64.2,77,29.95,10.0,SSE,6.9,-,N/A,,Clear,150,2013-06-20 06:55:00
2:15 AM,71.1,64.4,79,29.95,10.0,SSE,6.9,-,N/A,,Clear,150,2013-06-20 07:15:00
2:35 AM,70.7,64.6,81,29.95,10.0,SSE,6.9,-,N/A,,Clear,150,2013-06-20 07:35:00
2:55 AM,70.7,64.8,81,29.95,10.0,SSE,6.9,-,N/A,,Clear,160,2013-06-20 07:55:00
3:15 AM,70.3,65.1,83,29.94,10.0,SSE,8.1,-,N/A,,Scattered Clouds,150,2013-06-20 08:15:00
3:35 AM,70.7,65.3,83,29.94,10.0,SSE,8.1,-,N/A,,Mostly Cloudy,150,2013-06-20 08:35:00
3:55 AM,70.7,65.3,83,29.94,10.0,SSE,6.9,-,N/A,,Scattered Clouds,150,2013-06-20 08:55:00
4:15 AM,70.7,65.5,83,29.93,10.0,SSE,6.9,-,N/A,,Clear,150,2013-06-20 09:15:00
4:35 AM,70.0,65.7,86,29.92,10.0,SSE,8.1,-,N/A,,Clear,150,2013-06-20 09:35:00
4:55 AM,70.0,65.8,87,29.92,10.0,SSE,6.9,-,N/A,,Scattered Clouds,150,2013-06-20 09:55:00
5:15 AM,69.6,65.8,88,29.93,10.0,SSE,8.1,-,N/A,,Clear,150,2013-06-20 10:15:00
5:35 AM,69.3,66.0,89,29.93,10.0,SSE,6.9,-,N/A,,Clear,160,2013-06-20 10:35:00
5:55 AM,69.8,66.2,88,29.93,10.0,SSE,8.1,-,N/A,,Scattered Clouds,160,2013-06-20 10:55:00
6:15 AM,70.2,66.7,89,29.93,10.0,SSE,9.2,-,N/A,,Scattered Clouds,150,2013-06-20 11:15:00
6:35 AM,70.7,66.9,88,29.93,10.0,SSE,9.2,-,N/A,,Scattered Clouds,150,2013-06-20 11:35:00
6:55 AM,71.6,67.5,87,29.92,10.0,SE,11.5,16.1,N/A,,Mostly Cloudy,140,2013-06-20 11:55:00
7:15 AM,72.3,67.6,85,29.93,10.0,SSE,10.4,-,N/A,,Scattered Clouds,150,2013-06-20 12:15:00
7:35 AM,74.1,68.5,83,29.91,10.0,SSE,13.8,17.3,N/A,,Scattered Clouds,150,2013-06-20 12:35:00
7:55 AM,74.7,68.9,82,29.92,10.0,SSE,15.0,-,N/A,,Scattered Clouds,160,2013-06-20 12:55:00
8:15 AM,76.1,69.1,79,29.91,10.0,South,17.3,21.9,N/A,,Scattered Clouds,170,2013-06-20 13:15:00
8:35 AM,77.2,69.6,77,29.91,10.0,SSE,16.1,24.2,N/A,,Clear,160,2013-06-20 13:35:00
8:55 AM,78.3,69.8,75,29.91,10.0,SSE,17.3,24.2,N/A,,Clear,160,2013-06-20 13:55:00
9:15 AM,79.7,70.2,73,29.90,10.0,SSE,19.6,28.8,N/A,,Clear,160,2013-06-20 14:15:00
9:35 AM,80.4,70.2,71,29.89,10.0,South,21.9,26.5,N/A,,Clear,170,2013-06-20 14:35:00
9:55 AM,80.8,70.5,71,29.89,10.0,South,17.3,28.8,N/A,,Clear,170,2013-06-20 14:55:00
10:15 AM,81.3,70.5,70,29.89,10.0,South,19.6,32.2,N/A,,Clear,180,2013-06-20 15:15:00
10:35 AM,82.4,70.9,68,29.88,10.0,South,20.7,27.6,N/A,,Clear,170,2013-06-20 15:35:00
10:55 AM,82.6,71.1,68,29.88,10.0,SSE,20.7,24.2,N/A,,Scattered Clouds,150,2013-06-20 15:55:00
11:15 AM,83.3,71.4,67,29.89,10.0,South,16.1,23.0,N/A,,Scattered Clouds,170,2013-06-20 16:15:00
11:35 AM,84.6,70.2,62,29.88,10.0,South,15.0,20.7,N/A,,Scattered Clouds,170,2013-06-20 16:35:00
11:55 AM,86.2,69.4,57,29.88,10.0,South,20.7,26.5,N/A,,Scattered Clouds,170,2013-06-20 16:55:00
12:15 PM,86.9,69.1,55,29.88,10.0,South,21.9,28.8,N/A,,Scattered Clouds,180,2013-06-20 17:15:00
12:35 PM,87.4,69.4,55,29.88,10.0,South,20.7,26.5,N/A,,Scattered Clouds,170,2013-06-20 17:35:00
12:55 PM,87.3,69.8,56,29.88,10.0,South,19.6,25.3,N/A,,Scattered Clouds,180,2013-06-20 17:55:00
1:15 PM,86.9,69.4,56,29.88,10.0,South,17.3,27.6,N/A,,Mostly Cloudy,170,2013-06-20 18:15:00
1:35 PM,87.6,70.0,56,29.86,10.0,South,21.9,27.6,N/A,,Mostly Cloudy,170,2013-06-20 18:35:00
1:55 PM,88.9,70.3,54,29.85,10.0,South,19.6,27.6,N/A,,Scattered Clouds,180,2013-06-20 18:55:00
2:15 PM,89.1,70.3,54,29.85,10.0,South,18.4,29.9,N/A,,Clear,170,2013-06-20 19:15:00
2:35 PM,89.4,70.0,53,29.84,10.0,South,21.9,27.6,N/A,,Scattered Clouds,170,2013-06-20 19:35:00
2:55 PM,90.5,70.5,52,29.84,10.0,South,19.6,23.0,N/A,,Scattered Clouds,190,2013-06-20 19:55:00
3:15 PM,90.9,70.9,52,29.83,10.0,SSE,19.6,31.1,N/A,,Scattered Clouds,160,2013-06-20 20:15:00
3:35 PM,91.4,70.9,51,29.83,10.0,South,18.4,32.2,N/A,,Scattered Clouds,170,2013-06-20 20:35:00
3:55 PM,91.0,70.9,51,29.83,10.0,SSE,23.0,27.6,N/A,,Scattered Clouds,160,2013-06-20 20:55:00
4:15 PM,90.5,70.9,52,29.83,10.0,SSE,21.9,27.6,N/A,,Scattered Clouds,160,2013-06-20 21:15:00
4:35 PM,90.0,71.1,54,29.82,10.0,South,19.6,29.9,N/A,,Scattered Clouds,170,2013-06-20 21:35:00
4:55 PM,90.5,70.9,52,29.81,10.0,SSE,23.0,31.1,N/A,,Mostly Cloudy,160,2013-06-20 21:55:00
5:15 PM,90.9,70.7,51,29.81,10.0,South,24.2,31.1,N/A,,Scattered Clouds,170,2013-06-20 22:15:00
5:35 PM,91.0,70.5,51,29.81,10.0,South,19.6,28.8,N/A,,Mostly Cloudy,170,2013-06-20 22:35:00
5:55 PM,91.4,70.7,51,29.80,10.0,South,21.9,29.9,N/A,,Scattered Clouds,180,2013-06-20 22:55:00
6:15 PM,91.2,70.7,51,29.81,10.0,SSE,21.9,28.8,N/A,,Scattered Clouds,160,2013-06-20 23:15:00
6:35 PM,89.6,70.9,54,29.81,10.0,SSE,19.6,27.6,N/A,,Scattered Clouds,160,2013-06-20 23:35:00
6:55 PM,90.0,70.9,53,29.81,10.0,South,17.3,23.0,N/A,,Scattered Clouds,170,2013-06-20 23:55:00
7:15 PM,89.6,70.3,53,29.82,10.0,South,18.4,28.8,N/A,,Scattered Clouds,170,2013-06-21 00:15:00
7:35 PM,88.7,70.3,54,29.82,10.0,South,17.3,25.3,N/A,,Clear,170,2013-06-21 00:35:00
7:55 PM,88.2,70.0,55,29.83,10.0,SSE,16.1,23.0,N/A,,Clear,160,2013-06-21 00:55:00
8:15 PM,87.6,70.5,57,29.83,10.0,SSE,15.0,-,N/A,,Clear,160,2013-06-21 01:15:00
8:35 PM,87.1,70.7,58,29.83,10.0,South,16.1,21.9,N/A,,Clear,170,2013-06-21 01:35:00
8:55 PM,86.4,70.9,60,29.83,10.0,SSE,15.0,23.0,N/A,,Clear,160,2013-06-21 01:55:00
9:15 PM,85.5,71.4,63,29.84,10.0,SSE,13.8,21.9,N/A,,Clear,160,2013-06-21 02:15:00
9:35 PM,85.1,71.6,64,29.84,10.0,SSE,13.8,24.2,N/A,,Clear,150,2013-06-21 02:35:00
9:55 PM,84.4,72.1,67,29.85,10.0,SSE,17.3,23.0,N/A,,Clear,160,2013-06-21 02:55:00
10:15 PM,84.2,72.5,68,29.86,10.0,SSE,17.3,24.2,N/A,,Clear,160,2013-06-21 03:15:00
10:35 PM,83.5,72.7,70,29.86,10.0,SSE,18.4,24.2,N/A,,Clear,160,2013-06-21 03:35:00
10:55 PM,83.1,72.9,71,29.87,10.0,SSE,17.3,27.6,N/A,,Clear,160,2013-06-21 03:55:00
11:15 PM,82.8,73.4,73,29.88,10.0,SSE,20.7,26.5,N/A,,Clear,160,2013-06-21 04:15:00
11:35 PM,82.4,73.4,74,29.88,10.0,SSE,17.3,25.3,N/A,,Clear,160,2013-06-21 04:35:00
11:55 PM,82.0,73.8,76,29.88,10.0,SSE,16.1,21.9,N/A,,Clear,160,2013-06-21 04:55:00